Tracking 29892 objects as of 21-Nov-2024
HD Live streaming from Space Station
objects crossing your sky now

CZ-6A DEB

Track CZ-6A DEB now!
10-day predictions


NORAD ID: 56273
Int'l Code: 2022-151ACR
Perigee: 623.9 km
Apogee: 823.8 km
Inclination: 98.5 °
Period: 99.1 minutes
Semi major axis: 7094 km
RCS: Unknown
Launch date: November 11, 2022
Source: People's Republic of China (PRC)
Launch site: Taiyaun Space Center, China (TSC)

Note: This is SATELLITE DEBRIS
Your satellite tracking list
Your tracking list is empty




NASA's NSSDC Master Catalog

Two Line Element Set (TLE):
1 56273U 22151ACR 24324.52354216  .00010043  00000-0  21572-2 0  9994
2 56273  98.5352 344.8949 0140839 236.8990 121.8620 14.52734211 91684
Source of the keplerian elements: AFSPC